{"data":{"norad_id":28366,"intl_designator":"2004-025A","name":"APRIZESAT 2","alt_names":[],"object_type":"PAYLOAD","status":"ACTIVE","operator":null,"country":"US","launch_date":"2004-06-29","launch_site_code":"TYMSC","launch_vehicle":null,"mission":null,"orbit_class":"UNKNOWN","rcs_meters":0.0543,"size_class":null,"mass_kg":null,"dimensions":null,"purposes":[],"wikipedia_slug":null,"has_3d_model":false,"image_url":null,"decayed_at":null,"tle_current":{"epoch":"2026-09-19T21:53:33.993600Z","epoch_age_seconds":64997,"freshness":"FRESH","line1":"1 28366U 04025A   26262.91219900  .00000077  00000+0  37520-4 0  9999","line2":"2 28366  98.1130  63.5905 0104734 324.7459  34.6831 14.38068300165257","mean_motion":14.380683,"eccentricity":0.0104734,"inclination_deg":98.113,"raan_deg":63.5905,"arg_perigee_deg":324.7459,"mean_anomaly_deg":34.6831,"bstar":3.752e-5,"rev_number":16525,"period_min":100.1343260261,"perigee_km":690.07617432868,"apogee_km":839.69968896692,"semimajor_km":7143.0249316478,"source":"CELESTRAK","updated_at":"2026-09-20T09:00:13.596600Z"}}}